This is the latest recevied weather packets stored in our database for station/object KC4BAM. If no packets are shown the sender has not sent any weather packets the latest 10 day(s).
| Time | Temp. | Humidity | Pressure | Rain* | Wind** | Luminosity | Snow |
|---|---|---|---|---|---|---|---|
| 1777986468 | 17.22° C | 69% | 1001.5 hPa | 0 mm | - | 68 W/m² | - |
| 1777986166 | 17.22° C | 69% | 1001.4 hPa | 0 mm | - | 66 W/m² | - |
| 1777985862 | 17.22° C | 69% | 1001.2 hPa | 0 mm | - | 66 W/m² | - |
| 1777985560 | 17.22° C | 69% | 1001.1 hPa | 0 mm | - | 61 W/m² | - |
| 1777985256 | 17.22° C | 69% | 1001 hPa | 0 mm | - | 54 W/m² | - |
| 1777984953 | 17.22° C | 69% | 1001.2 hPa | 0 mm | - | 51 W/m² | - |
| 1777984649 | 16.67° C | 69% | 1001.2 hPa | 0 mm | - | 49 W/m² | - |
| 1777984346 | 16.67° C | 69% | 1001.1 hPa | 0 mm | - | 51 W/m² | - |
| 1777984042 | 16.67° C | 69% | 1001.1 hPa | 0 mm | - | 51 W/m² | - |
| 1777983740 | 16.67° C | 70% | 1001 hPa | 0 mm | - | 43 W/m² | - |
| 1777983436 | 16.67° C | 70% | 1001 hPa | 0 mm | - | 38 W/m² | - |
| 1777983133 | 16.67° C | 70% | 1001.1 hPa | 0 mm | - | 32 W/m² | - |
| 1777982829 | 16.67° C | 70% | 1001.1 hPa | 0 mm | - | 31 W/m² | - |
| 1777982525 | 16.11° C | 70% | 1001.1 hPa | 0 mm | - | 25 W/m² | - |
| 1777982219 | 16.11° C | 70% | 1000.9 hPa | 0 mm | - | 24 W/m² | - |
| 1777981917 | 16.11° C | 70% | 1001 hPa | 0 mm | - | 20 W/m² | - |
| 1777981614 | 16.11° C | 71% | 1001 hPa | 0 mm | - | 15 W/m² | - |
| 1777981310 | 16.11° C | 70% | 1000.9 hPa | 0 mm | - | 16 W/m² | - |
| 1777981006 | 16.11° C | 70% | 1000.8 hPa | 0 mm | - | 15 W/m² | - |
| 1777980703 | 16.11° C | 70% | 1000.8 hPa | 0 mm | - | 12 W/m² | - |
| 1777980400 | 16.11° C | 70% | 1000.7 hPa | 0 mm | - | 9 W/m² | - |
| 1777980098 | 16.11° C | 70% | 1000.6 hPa | 0 mm | - | 8 W/m² | - |
| 1777979797 | 16.11° C | 70% | 1000.6 hPa | 0 mm | - | 6 W/m² | - |
| 1777979493 | 16.11° C | 70% | 1000.5 hPa | 0 mm | - | 5 W/m² | - |
| 1777979189 | 16.11° C | 70% | 1000.6 hPa | 0 mm | - | 3 W/m² | - |
* Rain latest hour (hover to see other rain measurements)
** Current wind speed in m/s (hover to see current wind gust speed)